www.pogodaiklimat.ru

Погода и климат >> Архив погоды >> Австралия >> Западная Австралия >> Микатарра


ПОГОДА в Микатарре

  • Прогноз погоды в Микатарре
  • Монитор погоды в Микатарре

АРХИВ ПОГОДЫ в Микатарре

Время (UTC), дата Ветер
(напр.,м/с)
 
Видим.   Явления Облачность Т
(С)
Тd
(С)
f
(%)
Тe
(С)
Тes
(С)
Комфортность P
(гПа)
Po
(гПа)
Тmin
(С)
Tmax
(С)
R
(мм)
R24
(мм)
S
(см)
19 14.03 В 2 н/о 10/0
[]
+24.2 +17.2 65 +28 +28 душно 1011.2 954.1
21 14.03 СВ 3 н/о н/о +24.2 +17.0 64 +28 +28 душно 1011.4 954.2
22 14.03 В 2 н/о 9/0
[]
+23.8 +17.3 67 +28 +28 душно 1011.9 954.7
00 15.03 В 3 н/о н/о +26.1 +16.4 55 +30 +30 душно 1012.9 955.7
01 15.03 ЮВ 3 н/о 8/0
[]
+27.5 +16.1 50 +31 +36 душно 1013.2 955.9 +23.5
03 15.03 СВ 4 н/о н/о +30.9 +13.7 35 +32 +32 жарко 1012.3 955.1
04 15.03 СВ 3 н/о 10/0
[]
+31.4 +13.2 33 +32 +40 жарко 1011.7 954.5
06 15.03 С 3 н/о н/о +32.5 +12.7 30 +33 +33 жарко 1009.8 952.7
07 15.03 В 3 н/о 10/0
[]
+32.6 +11.7 28 +33 +37 жарко 1008.6 951.6
09 15.03 СВ 2 н/о н/о +33.0 +11.5 27 +33 +33 жарко 1008.2 951.2
10 15.03 ЮВ 3 н/о н/о +32.5 +11.6 28 +33 +33 жарко 1009.1 952.1
12 15.03 ЮВ 7 н/о н/о +24.3 +15.8 59 +27 +27 жарко 1011.8 954.6
13 15.03 ЮВ 6 н/о н/о +23.5 +15.3 60 +26 +26 жарко 1012.0 954.8 +34.1
15 15.03 В 4 н/о н/о +23.7 +14.7 57 +26 +26 жарко 1010.6 953.5
16 15.03 СВ 4 н/о н/о +23.3 +14.6 58 +27 +27 душно 1010.1 953.0
18 15.03 В 5 н/о н/о +22.5 +14.4 60 +26 +26 жарко 1009.4 952.4
19 15.03 СВ 3 н/о н/о +21.8 +14.4 63 +25 +25 комфорт 1009.4 952.4
21 15.03 Ю 2 н/о н/о +20.8 +13.7 64 +24 +24 комфорт 1010.0 952.9
22 15.03 ЮВ 2 н/о н/о +20.4 +14.1 67 +23 +23 комфорт 1010.4 953.3
00 16.03 В 6 н/о н/о +25.3 +15.3 54 +28 +28 жарко 1011.2 954.1
01 16.03 СВ 5 н/о н/о +28.4 +15.0 44 +31 +31 душно 1011.4 954.2 +20.2
03 16.03 СВ 4 н/о н/о +31.4 +13.2 33 +32 +32 жарко 1010.5 953.4
04 16.03 С 3 н/о н/о +33.8 +12.7 28 +34 +34 очень
жарко
1009.8 952.7
06 16.03 ЮВ 5 н/о н/о +35.2 +9.6 21 +34 +34 очень
жарко
1008.2 951.2
07 16.03 Ю 4 н/о 1/0
[]
+36.6 +7.6 17 +35 +41 очень
жарко
1007.5 950.6
09 16.03 Ю 5 н/о н/о +35.2 +8.1 19 +33 +33 жарко 1007.3 950.4
10 16.03 ЮВ 5 н/о н/о +33.9 +7.0 19 +32 +32 жарко 1007.9 950.9
12 16.03 ЮВ 4 н/о н/о +32.0 +8.9 24 +31 +31 жарко 1009.6 952.5
13 16.03 ЮВ 4 н/о 9/0
[]
+31.4 +10.7 28 +31 +31 жарко 1010.0 952.9 +37.5
15 16.03 ЮВ 5 н/о н/о +29.5 +11.5 33 +30 +30 жарко 1009.6 952.5
16 16.03 ЮВ 4 н/о 10/0
[]
+28.9 +11.0 33 +29 +29 жарко 1009.4 952.4
18 16.03 В 5 н/о н/о +28.0 +11.1 35 +29 +29 жарко 1009.3 952.3
19 16.03 СВ 4 н/о 10/0
[]
+27.2 +12.0 39 +28 +28 жарко 1009.2 952.2
21 16.03 СВ 5 н/о н/о +27.5 +13.4 42 +29 +29 жарко 1009.4 952.4
22 16.03 В 4 н/о 10/0
[]
+26.7 +14.1 46 +29 +29 жарко 1009.8 952.7
00 17.03 В 5 н/о н/о +27.8 +15.1 46 +30 +30 жарко 1010.5 953.4
01 17.03 СВ 5 н/о 9/0
[]
+29.0 +15.5 44 +32 +35 душно 1011.1 954.0 +25.2
03 17.03 ЮВ 7 н/о н/о +20.4 +18.7 90 +24 +24 комфорт 1012.9 955.7
04 17.03 ЮВ 6 н/о {туман} 10/0
[]
+22.6 +16.4 68 +27 +31 душно 1011.8 954.6
06 17.03 ЮВ 6 н/о н/о +25.6 +17.8 62 +30 +30 душно 1009.9 952.8
07 17.03 ЮВ 7 н/о в посл. час дождь {туман} 10/0 2000 м
[]
+27.2 +14.9 47 +30 +31 душно 1009.6 952.5
09 17.03 СВ 2 н/о н/о +22.0 +18.6 81 +27 +27 душно 1012.0 954.8
10 17.03 В 5 н/о в посл. час дождь {туман} 5/5 1000 м
[]
+21.3 +18.1 82 +26 +26 душно 1011.7 954.5
12 17.03 В 4 н/о н/о +21.4 +17.0 76 +25 +25 комфорт 1010.9 953.8
13 17.03 В 3 н/о {туман} 10/0
[]
+21.4 +17.6 79 +26 +26 душно 1011.1 954.0 +32.1
15 17.03 В 2 н/о н/о +20.3 +17.9 86 +24 +24 комфорт 1010.9 953.8
16 17.03 ЮВ 2 н/о 9/0
[]
+20.7 +18.8 89 +26 +26 душно 1010.9 953.8
18 17.03 Ю 2 н/о н/о +20.7 +17.5 82 +25 +25 комфорт 1010.8 953.7
19 17.03 ЮВ 2 н/о 4/0
[]
+20.3 +16.9 81 +24 +24 комфорт 1010.6 953.5
21 17.03 ЮВ 2 н/о н/о +20.4 +18.0 86 +25 +25 комфорт 1010.7 953.6
22 17.03 штиль 0 н/о 5/0
[]
+20.0 +18.5 91 +23 +23 комфорт 1011.2 954.1
00 18.03 В 2 н/о н/о +25.4 +18.1 64 +30 +30 душно 1011.9 954.7
01 18.03 СВ 2 н/о н/о +27.2 +15.9 50 +30 +30 душно 1012.1 954.9 +19.8
03 18.03 С 2 н/о н/о +30.5 +14.2 37 +32 +32 жарко 1011.1 954.0
04 18.03 Ю 2 н/о 8/0
[]
+31.4 +12.7 32 +32 +44 жарко 1010.2 953.1
06 18.03 В 4 н/о н/о +33.2 +13.8 31 +34 +34 очень
жарко
1008.2 951.2
07 18.03 В 4 н/о н/о +33.5 +12.5 28 +34 +34 очень
жарко
1007.4 950.5
09 18.03 ЮВ 3 н/о н/о +32.7 +12.9 30 +33 +33 жарко 1007.1 950.2
10 18.03 В 4 н/о н/о +32.3 +12.5 30 +33 +33 жарко 1007.3 950.4
12 18.03 В 6 н/о н/о +29.6 +14.6 40 +32 +32 душно 1009.0 952.0
13 18.03 В 5 н/о н/о +28.3 +15.2 45 +31 +31 душно 1009.6 952.5 +34.3
15 18.03 В 4 н/о н/о +26.2 +15.6 52 +29 +29 жарко 1009.1 952.1
16 18.03 В 4 н/о н/о +25.9 +15.0 51 +29 +29 душно 1008.8 951.8
18 18.03 СВ 4 н/о н/о +25.1 +15.4 55 +28 +28 жарко 1008.6 951.6
19 18.03 СВ 5 н/о н/о +25.0 +15.3 55 +28 +28 жарко 1008.1 951.1
21 18.03 СВ 5 н/о н/о +24.7 +15.1 55 +28 +28 душно 1008.3 951.3
22 18.03 СВ 5 н/о н/о +24.4 +14.8 55 +27 +27 жарко 1008.7 951.7
00 19.03 СВ 5 н/о н/о +27.3 +14.7 46 +30 +30 душно 1009.4 952.4
01 19.03 СВ 5 н/о 10/0
[]
+29.3 +14.3 40 +31 +34 жарко 1010.1 953.0 +24.4
03 19.03 СВ 3 н/о н/о +31.9 +14.1 34 +33 +33 жарко 1009.6 952.5
04 19.03 С 3 н/о 10/0
[]
+32.6 +13.8 32 +34 +42 очень
жарко
1008.4 951.4
06 19.03 СВ 2 н/о н/о +35.4 +11.7 24 +35 +35 очень
жарко
1006.5 949.6
07 19.03 СВ 2 н/о 1/0
[]
+35.7 +11.4 23 +35 +44 очень
жарко
1005.6 948.8
09 19.03 ЮЗ 4 н/о н/о +34.8 +11.2 24 +34 +34 очень
жарко
1005.3 948.5
10 19.03 З 4 н/о 5/0
[]
+34.1 +10.7 24 +33 +33 жарко 1005.6 948.8
12 19.03 ЮВ 4 н/о н/о +31.3 +13.6 34 +33 +33 жарко 1007.7 950.8
13 19.03 ЮВ 6 н/о 10/10 1000 м
[]
+29.7 +14.3 39 +32 +32 душно 1008.7 951.7 +37.0
15 19.03 ЮВ 6 н/о н/о +27.6 +15.6 48 +31 +31 душно 1008.8 951.8
16 19.03 ЮВ 5 н/о 8/0
[]
+26.9 +16.5 53 +30 +30 душно 1008.7 951.7
18 19.03 В 4 н/о н/о +25.3 +15.9 56 +29 +29 душно 1008.1 951.1
19 19.03 ЮВ 3 н/о 1/0
[]
+24.6 +16.3 60 +28 +28 душно 1007.6 950.7
21 19.03 ЮВ 3 н/о н/о +24.4 +16.6 62 +28 +28 душно 1007.6 950.7
22 19.03 В 3 н/о 9/0
[]
+23.9 +16.7 64 +27 +27 жарко 1008.4 951.4
00 20.03 В 4 н/о н/о +27.2 +16.5 52 +31 +31 душно 1009.4 952.4
01 20.03 В 5 н/о 10/0
[]
+30.1 +14.2 38 +32 +34 жарко 1009.6 952.5 +23.9
03 20.03 СВ 4 н/о н/о +34.8 +12.5 26 +35 +35 очень
жарко
1009.0 952.0
04 20.03 В 4 н/о 3/0
[]
+36.0 +12.3 24 +36 +47 очень
жарко
1008.2 951.2
06 20.03 СВ 3 н/о н/о +36.8 +10.9 21 +36 +36 очень
жарко
1006.8 949.9
07 20.03 Ю 2 н/о 9/0
[]
+36.8 +10.9 21 +36 +41 очень
жарко
1006.2 949.3
09 20.03 ЮВ 5 н/о н/о +34.3 +14.2 30 +35 +35 очень
жарко
1005.8 949.0
10 20.03 Ю 7 н/о 10/0
[]
+29.0 +15.2 43 +32 +32 душно 1006.8 949.9
12 20.03 Ю 2 н/о н/о +28.8 +16.7 48 +32 +32 душно 1009.2 952.2
13 20.03 Ю 3 н/о 10/0
[]
+29.2 +16.7 47 +33 +33 очень
душно
1008.4 951.4 +38.0
15 20.03 В 5 н/о н/о +27.2 +17.9 57 +32 +32 очень
душно
1008.3 951.3
16 20.03 С 5 н/о 10/0
[]
+27.0 +17.8 57 +31 +31 душно 1009.1 952.1
18 20.03 В 7 н/о н/о +26.5 +16.7 55 +30 +30 душно 1006.8 949.9
19 20.03 В 6 н/о 10/0
[]
+26.0 +16.8 57 +30 +30 душно 1006.2 949.3
21 20.03 В 2 н/о н/о +25.9 +17.3 59 +30 +30 душно 1007.0 950.1
22 20.03 В 4 н/о 10/0
[]
+25.6 +17.0 59 +29 +29 душно 1008.3 951.3
00 21.03 Ю 4 н/о н/о +26.4 +17.2 57 +30 +30 душно 1010.2 953.1
01 21.03 ЮВ 6 н/о 1/0
[]
+28.2 +16.1 48 +31 +34 душно 1010.3 953.2 +25.0
03 21.03 ЮВ 8 н/о н/о +32.5 +13.7 32 +34 +34 очень
жарко
1010.1 953.0
04 21.03 ЮВ 7 н/о н/о +33.9 +12.8 28 +34 +34 очень
жарко
1009.2 952.2
06 21.03 ЮВ 6 н/о н/о +34.6 +12.9 27 +35 +35 очень
жарко
1007.3 950.4
07 21.03 ЮВ 7 н/о н/о +36.2 +13.0 25 +36 +36 очень
жарко
1006.6 949.7
09 21.03 ЮВ 7 н/о н/о +33.0 +12.6 29 +33 +33 жарко 1006.3 949.4
10 21.03 ЮВ 8 н/о 10/0
[]
+31.2 +13.5 34 +32 +32 жарко 1007.0 950.1
12 21.03 ЮВ 6 н/о н/о +27.6 +14.9 46 +30 +30 жарко 1008.2 951.2
13 21.03 ЮВ 6 н/о 10/0
[]
+27.3 +14.3 45 +30 +30 душно 1008.5 951.5 +36.5
15 21.03 ЮВ 4 н/о н/о +26.3 +15.7 52 +29 +29 жарко 1009.4 952.4
16 21.03 Ю 7 н/о в посл. час дождь {туман} 9/9 1000 м
[]
+22.8 +18.1 75 +28 +28 душно 1009.2 952.2

 

Местоположение метеостанции Микатарра (Западная Австралия, Австралия): широта -26.61 долгота 118.55 высота над уровнем моря 519 м.

В архиве по умолчанию представлена погода в Микатарре за последнюю неделю. Архивные данные за месяц целиком и за предыдущие месяцы, начиная с января 2011 года, Вы можете получить, выбрав интересующий диапазон дат из раскрывающегося списка и нажав кнопку "Ввод!".


*Определитесь, кто Вы:
робот инопланетянин человек

Внимание! Время в таблицах - всемирное. Для получения местного времени необходимо прибавить поправку, которая равна 8 ч.

Смотрите также архив погоды в соседних городах и на ближайших метеорологических станциях:

Погода в Маунт Магнет (Западная Австралия, Австралия) (181 км)
Погода в Леинстере (Западная Австралия, Австралия) (253 км)
Погода в Леоноре (Западная Австралия, Австралия) (372 км)
Погода в Ньюмане (Западная Австралия, Австралия) (378 км)
Погода в Мораве (Западная Австралия, Австралия) (381 км)
Погода в Параберду (Западная Австралия, Австралия) (391 км)
Погода в Лавертоне (Западная Австралия, Австралия) (441 км)
Погода в Дауоллину (Западная Австралия, Австралия) (448 км)
Погода в Джеральдтоне (Западная Австралия, Австралия) (451 км)
Погода в Шарк-Бэе (Западная Австралия, Австралия) (502 км)

Пояснения к столбцам:

Ветер - указаны скорость ветра в м/с - средняя за 10 мин, порывы в срок и между сроками (в фигурных скобках) и направление, откуда дует ветер: С - северный, СВ - северо-восточный, В - восточный, ЮВ - юго-восточный, Ю - южный, ЮЗ - юго-западный, З - западный, СЗ - северо-западный.
Видимость - горизонтальная дальность видимости в метрах или километрах. При видимости от 1 до 10 км при отсутствии осадков обычно наблюдается дымка, при ухудшении видимости до 1 км и менее - туман. В сухую погоду видимость может ухудшаться дымом, пылью или мглою.
Явления - указаны атмосферные явления, наблюдавшиеся в срок или в последний час перед сроком; фигурными скобками обозначены явления, наблюдавшиеся между сроками (за 1-3 часа до срока); квадратными скобками обозначены град или гололедные отложения с указанием их диаметра в мм.
Облачность - указаны через наклонную черту общая и нижняя облачность в баллах и высота нижней границы облаков в метрах; квадратными скобками обозначены формы облаков: Ci - перистые, Cs - перисто-слоистые, Cc - перисто-кучевые, Ac - высококучевые, As - высокослоистые, Sc - слоисто-кучевые, Ns - слоисто-дождевые, Cu - кучевые, Cb - кучево-дождевые. Подробнее классификацию облаков см. в Атласе облаков (PDF).
T - Температура воздуха - температура, измеренная на высоте 2 м над землей.
Td - Температура точки росы - температура, при понижении до которой содержащийся в воздухе водяной пар достигнет насыщения.
f - Относительная влажность воздуха - влажноcть воздуха, измеренная на высоте 2 м над землей.
Te - Эффективная температура - температура, которую ощущает одетый по сезону человек в тени. Характеристика душности погоды. При расчете учитывается влияние влажности воздуха и скорости ветра на теплоощущения человека.
Tes - Эффективная температура на солнце - температура, которую ощущает человек, с поправкой на солнечный нагрев. Характеристика знойности погоды. Зависит от высоты солнца над горизонтом, облачности и скорости ветра. Ночью, в пасмурную погоду, а также при ветре 12 м/с и более поправка равна нулю.
P - Атмосферное давление - приведенное к уровню моря атмосферное давление.
Po - Атмосферное давление - измеренное на уровне метеостанции атмосферное давление.
Tmin - Минимальная температура - минимум температуры воздуха на высоте 2 м над землей.
Tmax - Максимальная температура - максимум температуры воздуха на высоте 2 м над землей.
R - Количество осадков - Количество выпавших осадков за период времени, мм. При наведении курсора мыши на число - период времени, за который выпало указанное количество осадков.
R24 - Количество осадков - Количество выпавших осадков за 24 часа, мм.
S - Снежный покров - Высота снежного покрова, см. При наведении курсора мыши на число - состояние снежного покрова и степень покрытия местности в баллах.